{"data":{"norad_id":57004,"intl_designator":"2023-085A","name":"2023-085A","alt_names":[],"object_type":"PAYLOAD","status":"ACTIVE","operator":null,"country":"PRC","launch_date":"2023-06-15","launch_site_code":"TAISC","launch_vehicle":null,"mission":null,"orbit_class":"UNKNOWN","rcs_meters":null,"size_class":null,"mass_kg":null,"dimensions":null,"purposes":[],"wikipedia_slug":null,"has_3d_model":false,"image_url":null,"decayed_at":null,"tle_current":{"epoch":"2026-05-25T03:28:10.395264Z","epoch_age_seconds":66086,"freshness":"FRESH","line1":"1 57004U 23085A   26145.14456476  .00012000  00000+0  41643-3 0  9992","line2":"2 57004  97.4933 254.9473 0008450 111.3221 248.8922 15.29906534163048","mean_motion":15.29906534,"eccentricity":0.000845,"inclination_deg":97.4933,"raan_deg":254.9473,"arg_perigee_deg":111.3221,"mean_anomaly_deg":248.8922,"bstar":0.00041643,"rev_number":16304,"period_min":94.123396952562,"perigee_km":470.29962302392,"apogee_km":481.88326909776,"semimajor_km":6854.2284460608,"source":"CELESTRAK","updated_at":"2026-05-25T13:37:59.792548Z"}}}